Tracking 32427 objects as of 11-Dec-2025
HD Live streaming from Space Station
objects crossing your sky now

DIAMANT B-P4 DEB

Track DIAMANT B-P4 DEB now!
10-day predictions


NORAD ID: 7659
Int'l Code: 1975-010E
Perigee: 786.6 km
Apogee: 1,057.2 km
Inclination: 49.8 °
Period: 103.3 minutes
Semi major axis: 7292 km
RCS: 0.1434 m2 (medium)
Launch date: February 6, 1975
Source: France (FR)
Launch site: FRENCH GUIANA (FRGUI)

Note: This is SATELLITE DEBRIS
Your satellite tracking list
Your tracking list is empty




NASA's NSSDC Master Catalog

Two Line Element Set (TLE):
1  7659U 75010E   25344.77385171  .00000243  00000-0  25605-3 0  9997
2  7659  49.8128 125.8851 0185551  59.1466 302.7541 13.93968102579068
Source of the keplerian elements: AFSPC